Location: Newark
(25.6108°S, 54.5803°W)
Time: 16:42:30
(UTC+00:00)

Courier 1B Rocket - Pass Details

Date: 02 November 2020
Orbit: 920 x 1202 km, 28.2° (Epoch: 22 November)

Event Time Altitude Azimuth Distance (km) Brightness Sun altitude
Rises 10:06:02 0° 266° (W) 3,996 7.6 16.2°
Reaches altitude 10° 10:08:56 10° 263° (W) 2,999 7.0 16.8°
Maximum altitude 10:16:18 72° 179° (S) 1,119 5.7 18.4°
Drops below altitude 10° 10:23:06 10° 95° (E) 2,786 9.8 20.0°
Sets 10:25:42 0° 92° (E) 3,696 9.6 20.6°
